When you browse on this site, cookies collect data to enhance your experience and personalize the content and advertising you see.
Visit our Privacy Policy to learn more. By continuing to use the site, you agree to this use of cookies and data.
  • Em Portugal
  • Lista de países
  • Para 7 dias
  • Temperatura da água
  • Mapas de satélite
  • Mapa do tempo
  • Widgets de tempo
  • user-avatar
    Iniciar Sessão

    Previsão horária em Pert

    Hoje, 23 Maio, Quinta-feira

    Tempo Temperatura Precipitação Vento Pressão Humidade
    00:00 +15°C° 0 mm 1 m/s 765 mmHg 79%
    01:00 +15°C° 0 mm 1 m/s 765 mmHg 79%
    02:00 +15°C° 0 mm 1 m/s 765 mmHg 80%
    03:00 +15°C° 0 mm 1 m/s 765 mmHg 81%
    04:00 +15°C° 0 mm 1 m/s 765 mmHg 81%
    05:00 +15°C° 0 mm 1 m/s 765 mmHg 82%
    06:00 +15°C° 0 mm 1 m/s 766 mmHg 81%
    07:00 +15°C° 0 mm 1 m/s 766 mmHg 79%
    08:00 +16°C° 0 mm 1 m/s 766 mmHg 78%
    09:00 +18°C° 0 mm 1 m/s 766 mmHg 71%
    10:00 +20°C° 0 mm 1 m/s 766 mmHg 64%
    11:00 +22°C° 0 mm 1 m/s 767 mmHg 57%
    12:00 +22°C° 0 mm 1 m/s 766 mmHg 55%
    13:00 +23°C° 0 mm 2 m/s 766 mmHg 53%
    14:00 +23°C° 0 mm 2 m/s 766 mmHg 52%
    15:00 +21°C° 0 mm 2 m/s 766 mmHg 55%
    16:00 +20°C° 0 mm 2 m/s 766 mmHg 59%
    17:00 +19°C° 0 mm 2 m/s 766 mmHg 63%
    18:00 +18°C° 0 mm 2 m/s 766 mmHg 67%
    19:00 +18°C° 0 mm 2 m/s 766 mmHg 71%
    20:00 +17°C° 0 mm 2 m/s 766 mmHg 76%
    21:00 +16°C° 0 mm 2 m/s 767 mmHg 78%
    22:00 +16°C° 0 mm 1 m/s 767 mmHg 80%
    23:00 +15°C° 0 mm 1 m/s 767 mmHg 82%

    Amanhã, 24 Maio, Sexta-feira

    Tempo Temperatura Precipitação Vento Pressão Humidade
    00:00 +15°C° 0 mm 1 m/s 767 mmHg 83%
    01:00 +14°C° 0 mm 1 m/s 767 mmHg 84%
    02:00 +14°C° 0 mm 1 m/s 767 mmHg 85%
    03:00 +14°C° 0 mm 1 m/s 767 mmHg 86%
    04:00 +14°C° 0 mm 1 m/s 766 mmHg 87%
    05:00 +14°C° 0 mm 1 m/s 766 mmHg 88%
    06:00 +14°C° 0 mm 1 m/s 767 mmHg 87%
    07:00 +14°C° 0 mm 1 m/s 767 mmHg 86%
    08:00 +14°C° 0 mm 2 m/s 767 mmHg 86%
    09:00 +16°C° 0 mm 2 m/s 767 mmHg 75%
    10:00 +18°C° 0 mm 2 m/s 767 mmHg 65%
    11:00 +20°C° 0 mm 2 m/s 767 mmHg 55%
    12:00 +21°C° 0 mm 2 m/s 767 mmHg 52%
    13:00 +21°C° 0 mm 2 m/s 766 mmHg 49%
    14:00 +22°C° 0 mm 3 m/s 765 mmHg 47%
    15:00 +21°C° 0 mm 3 m/s 766 mmHg 51%
    16:00 +20°C° 0 mm 3 m/s 766 mmHg 56%
    17:00 +19°C° 0 mm 3 m/s 766 mmHg 61%
    18:00 +18°C° 0 mm 3 m/s 766 mmHg 66%
    19:00 +17°C° 0 mm 3 m/s 766 mmHg 71%
    20:00 +16°C° 0 mm 3 m/s 767 mmHg 77%
    21:00 +16°C° 0 mm 3 m/s 767 mmHg 78%
    22:00 +15°C° 0 mm 2 m/s 767 mmHg 80%
    23:00 +15°C° 0 mm 2 m/s 768 mmHg 81%

    Depois de amanhã, 25 Maio, Sábado

    Tempo Temperatura Precipitação Vento Pressão Humidade
    00:00 +15°C° 0 mm 2 m/s 767 mmHg 82%
    01:00 +14°C° 0 mm 2 m/s 767 mmHg 82%
    02:00 +14°C° 0 mm 2 m/s 767 mmHg 83%
    03:00 +14°C° 0 mm 2 m/s 767 mmHg 83%
    04:00 +13°C° 0 mm 2 m/s 767 mmHg 84%
    05:00 +12°C° 0 mm 3 m/s 767 mmHg 84%
    06:00 +12°C° 0 mm 3 m/s 767 mmHg 83%
    07:00 +12°C° 0 mm 3 m/s 767 mmHg 82%
    08:00 +13°C° 0 mm 3 m/s 768 mmHg 81%
    09:00 +14°C° 0 mm 3 m/s 768 mmHg 72%
    10:00 +17°C° 0 mm 2 m/s 768 mmHg 63%
    11:00 +19°C° 0 mm 2 m/s 768 mmHg 55%
    12:00 +20°C° 0 mm 2 m/s 767 mmHg 51%
    13:00 +21°C° 0 mm 2 m/s 767 mmHg 47%
    14:00 +23°C° 0 mm 2 m/s 766 mmHg 43%
    15:00 +21°C° 0 mm 2 m/s 766 mmHg 46%
    16:00 +20°C° 0 mm 2 m/s 766 mmHg 49%
    17:00 +20°C° 0 mm 2 m/s 766 mmHg 52%
    18:00 +19°C° 0 mm 2 m/s 766 mmHg 55%
    19:00 +18°C° 0 mm 3 m/s 767 mmHg 58%
    20:00 +16°C° 0 mm 3 m/s 767 mmHg 62%
    21:00 +16°C° 0 mm 3 m/s 767 mmHg 63%
    22:00 +15°C° 0 mm 4 m/s 767 mmHg 65%
    23:00 +14°C° 0 mm 4 m/s 768 mmHg 67%

    26 Maio, Domingo

    Tempo Temperatura Precipitação Vento Pressão Humidade
    00:00 +14°C° 0 mm 4 m/s 767 mmHg 68%
    01:00 +14°C° 0 mm 4 m/s 767 mmHg 69%
    02:00 +13°C° 0 mm 4 m/s 767 mmHg 70%
    03:00 +13°C° 0 mm 5 m/s 767 mmHg 73%
    04:00 +13°C° 0 mm 5 m/s 767 mmHg 77%
    05:00 +13°C° 0 mm 5 m/s 767 mmHg 80%
    06:00 +13°C° 0 mm 5 m/s 767 mmHg 81%
    07:00 +13°C° 0 mm 5 m/s 768 mmHg 81%
    08:00 +13°C° 0 mm 5 m/s 768 mmHg 81%
    09:00 +15°C° 0 mm 5 m/s 768 mmHg 73%
    10:00 +17°C° 0 mm 5 m/s 768 mmHg 64%
    11:00 +19°C° 0 mm 5 m/s 767 mmHg 55%
    12:00 +21°C° 0 mm 4 m/s 767 mmHg 51%
    13:00 +22°C° 0 mm 4 m/s 766 mmHg 46%
    14:00 +24°C° 0 mm 3 m/s 765 mmHg 42%
    15:00 +22°C° 0 mm 3 m/s 765 mmHg 44%
    16:00 +21°C° 0 mm 3 m/s 765 mmHg 46%
    17:00 +21°C° 0 mm 3 m/s 765 mmHg 49%
    18:00 +20°C° 0 mm 3 m/s 766 mmHg 51%
    19:00 +19°C° 0 mm 4 m/s 766 mmHg 54%
    20:00 +17°C° 0 mm 5 m/s 767 mmHg 56%
    21:00 +16°C° 0 mm 5 m/s 767 mmHg 58%
    22:00 +16°C° 0 mm 5 m/s 767 mmHg 60%
    23:00 +15°C° 0 mm 6 m/s 767 mmHg 62%

    27 Maio, Segunda-feira

    Tempo Temperatura Precipitação Vento Pressão Humidade
    00:00 +15°C° 0 mm 6 m/s 767 mmHg 62%
    01:00 +15°C° 0 mm 6 m/s 766 mmHg 63%
    02:00 +15°C° 0 mm 6 m/s 766 mmHg 63%
    03:00 +14°C° 0 mm 6 m/s 766 mmHg 64%
    04:00 +14°C° 0 mm 6 m/s 766 mmHg 66%
    05:00 +14°C° 0 mm 6 m/s 766 mmHg 67%
    06:00 +14°C° 0 mm 5 m/s 766 mmHg 67%
    07:00 +14°C° 0 mm 5 m/s 766 mmHg 67%
    08:00 +14°C° 0 mm 5 m/s 767 mmHg 67%
    09:00 +16°C° 0 mm 5 m/s 767 mmHg 61%
    10:00 +19°C° 0 mm 5 m/s 766 mmHg 54%
    11:00 +21°C° 0 mm 4 m/s 766 mmHg 47%
    12:00 +22°C° 0 mm 4 m/s 766 mmHg 45%
    13:00 +25°C° 0 mm 3 m/s 765 mmHg 42%
    14:00 +26°C° 0 mm 3 m/s 764 mmHg 39%
    15:00 +25°C° 0 mm 3 m/s 764 mmHg 41%
    16:00 +24°C° 0 mm 2 m/s 764 mmHg 43%
    17:00 +24°C° 0 mm 2 m/s 764 mmHg 45%
    18:00 +22°C° 0 mm 3 m/s 765 mmHg 47%
    19:00 +21°C° 0 mm 4 m/s 765 mmHg 49%
    20:00 +20°C° 0 mm 4 m/s 765 mmHg 51%
    21:00 +19°C° 0 mm 5 m/s 765 mmHg 51%
    22:00 +19°C° 0 mm 5 m/s 765 mmHg 51%
    23:00 +19°C° 0 mm 5 m/s 766 mmHg 52%

    28 Maio, Terça-feira

    Tempo Temperatura Precipitação Vento Pressão Humidade
    00:00 +17°C° 0 mm 5 m/s 765 mmHg 51%
    01:00 +17°C° 0 mm 5 m/s 765 mmHg 51%
    02:00 +17°C° 0 mm 6 m/s 765 mmHg 50%
    03:00 +16°C° 0 mm 5 m/s 765 mmHg 51%
    04:00 +16°C° 0 mm 5 m/s 765 mmHg 52%
    05:00 +16°C° 0 mm 5 m/s 765 mmHg 53%
    06:00 +16°C° 0 mm 5 m/s 766 mmHg 54%
    07:00 +16°C° 0 mm 5 m/s 766 mmHg 54%
    08:00 +16°C° 0 mm 5 m/s 766 mmHg 55%
    09:00 +19°C° 0 mm 5 m/s 766 mmHg 50%
    10:00 +21°C° 0 mm 5 m/s 766 mmHg 46%
    11:00 +23°C° 0 mm 5 m/s 766 mmHg 41%
    12:00 +25°C° 0 mm 5 m/s 765 mmHg 39%
    13:00 +26°C° 0 mm 4 m/s 765 mmHg 37%
    14:00 +27°C° 0 mm 4 m/s 764 mmHg 35%
    15:00 +26°C° 0 mm 4 m/s 764 mmHg 36%
    16:00 +25°C° 0 mm 4 m/s 765 mmHg 38%
    17:00 +24°C° 0 mm 3 m/s 765 mmHg 40%
    18:00 +22°C° 0 mm 4 m/s 765 mmHg 40%
    19:00 +21°C° 0 mm 4 m/s 766 mmHg 40%
    20:00 +20°C° 0 mm 5 m/s 766 mmHg 40%
    21:00 +20°C° 0 mm 5 m/s 766 mmHg 39%
    22:00 +20°C° 0 mm 6 m/s 766 mmHg 38%
    23:00 +20°C° 0 mm 6 m/s 766 mmHg 36%
    Mostrar mais